CANX-4 (40055 NORAD) Tracking and Keplerian Element Data

This shows tracking and keplerian element data for the satellite.

Feedback or suggestion? Click here.




ElementValue
Catalog40055
NameCANX-4
Epoch Orbit21748
Epoch Day196.23933155
Epoch Year2018
RAAN302.6126
Inclination98.1953
Eccentricity0.0013077
Argument of Perigee244.426
Mean Anonmoly115.5597
Mean Motion14.74736699
Decay Rate7.6E-07
L11 40055U 14034C 18196.23933155 .00000076 00000-0 19341-4 0 9997
L22 40055 98.1953 302.6126 0013077 244.4260 115.5597 14.74736699217482

Live tracking and technical data element details for CANX-4 (NORAD 40055). CANX-4 can be tracked NOW for your location showing map with azimuth and elevation plus other details from your city location.

Track the satellite on the map from your city or location and see movement details for azimuth, elevation, latitude, longitude, range, height, and movement on the map or in text.







IsCatalogInMostPopularTable: catalog: 40055, numindb: 61
Update: records affected: 1



GetName: 40055 CANX-4

Hit Count: updated at: Sun, 15 Jul 2018 23:17:29 GMT